Tracking 28790 objects as of 19-Apr-2024
HD Live streaming from Space Station
objects crossing your sky now

DELTA 1 DEB

Track DELTA 1 DEB now!
10-day predictions


NORAD ID: 21296
Int'l Code: 1975-052AH
Perigee: 1,050.7 km
Apogee: 1,408.1 km
Inclination: 99.6 °
Period: 109.9 minutes
Semi major axis: 7600 km
RCS: 0.0736 m2 (small)
Launch date: June 12, 1975
Source: United States (US)
Launch site: AIR FORCE WESTERN TEST RANGE (AFWTR)

Note: This is SATELLITE DEBRIS
Your satellite tracking list
Your tracking list is empty




NASA's NSSDC Master Catalog

Two Line Element Set (TLE):
1 21296U 75052AH  24109.18130667  .00000365  00000-0  10145-2 0  9994
2 21296  99.6364 354.9942 0235082 303.8929 212.2892 13.10236589572816
Source of the keplerian elements: AFSPC